User: anonymous   Login
Location: Unspecified
(0.0000°N, 0.0000°E)
Time: 19:43:44
(UTC+00:00)
Language:

FLTSATCOM F7 - Orbit

View from above orbital plane
View from above orbital plane
View from above satellite
View from above satellite

Ground track
Ground track

The orbit data is extracted from the following two-line orbital elements,

1 17181U 86096A   21136.59375701  .00000006  00000-0  00000-0 0  9993
2 17181  14.1932 353.0856 0037032 293.4548  60.2803  0.98926458133580
Epoch (UTC): 16 May 2021 14:15:00
Eccentricity: 0.0037032
inclination: 14.1932°
perigee height: 36010 km
apogee height: 36325 km
right ascension of ascending node: 353.0856°
argument of perigee: 293.4548°
revolutions per day: 0.98926458
mean anomaly at epoch: 60.2803°
orbit number at epoch: 13358

The dashed part of the orbit path shows where the satellite is in the earth's shadow,  

DLR